Home   Weather   Yellowknife   Past weeks

Flag for Canada Past Weather in Yellowknife, Northwest Territories, Canada — Yesterday and Last 2 Weeks

Now
12 °F

Light snow. Ice fog.


Feels Like: -1 °F
Forecast: 4 / 13 °F
Wind: 10 mph from Northwest

Location: Yellowknife

Current Time: Jan 20, 2017 at 1:21:24 pm

Latest Report: Jan 20, 2017 at 12:37 pm


Visibility: 1 mi

Pressure: 29.29 "Hg

Humidity: 85%

Dew Point: 9 °F

Location of YellowknifeLocation

Past Weather in Yellowknife — Graph

°F

Yellowknife Temperature Yesterday

Maximum temperature yesterday: 10 °F (at 7:00 am)
Minimum temperature yesterday: 5 °F (at 12:00 pm)
Average temperature yesterday: 6 °F

High & Low Weather Summary for the Past Weeks

 TemperatureHumidityPressure
High21 °F (Jan 16, 11:00 am)93% (Jan 16, 10:00 am)30.68 "Hg (Jan 16, 10:00 am)
Low-35 °F (Jan 10, 1:00 am)62% (Jan 11, 6:00 am)28.96 "Hg (Jan 17, 5:00 am)
Average-6 °F79%29.79 "Hg
* Reported Jan 5 12:00 pm — Jan 20 12:00 pm, Yellowknife, Weather by CustomWeather, © 2017

Note: Actual official high and low records may vary slightly from our data, if they occured in-between our weather recording intervals... More about our weather records

Advertising

Yellowknife Weather History for the Previous 24 Hours

Scroll right to see more
 ConditionsComfort  
Time TempWeatherWind HumidityBarometerVisibility
12:00 pm
Fri, Jan 20
12 °FLight snow. Ice fog.10 mph85%29.29 "Hg1 mi
11:00 am12 °FLight snow. Ice fog.8 mph85%29.31 "Hg1 mi
10:35 am12 °FLight snow. Ice fog.7 mph85%29.31 "Hg1 mi
10:00 am12 °FLight snow. Ice fog.7 mph85%29.32 "Hg1 mi
9:31 am12 °FLight snow. Ice fog.8 mph85%29.33 "Hg1 mi
8:00 am10 °FLight snow. Ice fog.8 mph85%29.34 "Hg1 mi
7:00 am10 °FLight snow. Ice fog.12 mph85%29.36 "Hg1 mi
6:26 am10 °FLight snow. Mostly cloudy.8 mph85%29.38 "Hg1 mi
6:00 am10 °FLight snow. Mostly cloudy.8 mph85%29.39 "Hg1 mi
5:19 am9 °FLight snow. Mostly cloudy.9 mph85%29.39 "Hg2 mi
5:00 am9 °FLight snow. Overcast.9 mph85%29.40 "Hg4 mi
4:00 am9 °FLight snow. Mostly cloudy.13 mph85%29.41 "Hg4 mi
3:00 am9 °FLight snow. Mostly cloudy.10 mph78%29.44 "Hg6 mi
2:00 am7 °FLight snow. Mostly cloudy.9 mph85%29.45 "Hg3 mi
1:00 am7 °FLight snow. Low clouds.9 mph85%29.45 "Hg3 mi
12:00 am7 °FLight snow. Mostly cloudy.10 mph85%29.46 "Hg10 mi
11:00 pm
Thu, Jan 19
5 °FLight snow. Mostly cloudy.9 mph85%29.45 "Hg10 mi
10:00 pm5 °FLight snow. Overcast.9 mph85%29.46 "Hg10 mi
9:00 pm5 °FLight snow. Mostly cloudy.10 mph85%29.46 "Hg8 mi
8:00 pm5 °FLight snow. Mostly cloudy.12 mph85%29.46 "Hg10 mi
7:00 pm5 °FLight snow. Mostly cloudy.15 mph78%29.46 "Hg10 mi
6:00 pm5 °FLight snow. Overcast.9 mph85%29.49 "Hg2 mi
5:00 pm5 °FLight snow. Mostly cloudy.12 mph85%29.48 "Hg2 mi
4:00 pm5 °FLight snow. Mostly cloudy.12 mph85%29.47 "Hg3 mi
3:00 pm7 °FLight snow. More clouds than sun.13 mph85%29.47 "Hg8 mi
2:28 pm7 °FLight snow. Overcast.10 mph85%29.48 "Hg5 mi
2:00 pm7 °FLight snow. More clouds than sun.8 mph85%29.49 "Hg4 mi
1:00 pm5 °FLight snow. More clouds than sun.8 mph85%29.48 "Hg15 mi
Weather by CustomWeather, © 2017

See weather overviewHow to use our weather pages